Retour au catalogue

FENGYUN 1C DEB

ActifPO
NORAD 37682·DEBRIS·🇨🇳 China

Lancé May 10, 1999 depuis Taiyuan Satellite Launch Center

Loading…

Prochains Passages (prochaines 24 heures)

TLE

VieillissantSource: Space-Track

Époque: Sep 6, 2026, 22:02 UTC

1 37682U 99025EKX 26249.91853345  .00001126  00000-0  10489-2 0  9996
2 37682  98.5824 233.5523 0227593   3.0665 357.1821 13.72913241661121

Suivez FENGYUN 1C DEB en temps réel avec AllMySat

Download on the App Store